This is the latest recevied weather packets stored in our database for station/object N0QWM. If no packets are shown the sender has not sent any weather packets the latest 1 day(s).
| Time | Temp. | Humidity | Pressure | Rain* | Wind** | Luminosity | Snow |
|---|---|---|---|---|---|---|---|
| 1778043467 | 21.11° C | 77% | 1017.7 hPa | 0 mm | 0.45 m/s, 292° | 0 W/m² | - |
| 1778043163 | 21.11° C | 77% | 1017.5 hPa | 0 mm | 0.45 m/s, 306° | 0 W/m² | - |
| 1778042861 | 21.67° C | 76% | 1017.5 hPa | 0 mm | 1.34 m/s, 284° | 0 W/m² | - |
| 1778042558 | 21.67° C | 76% | 1017.3 hPa | 0 mm | 1.34 m/s, 296° | 0 W/m² | - |
| 1778042256 | 21.67° C | 76% | 1017.4 hPa | 0 mm | 0.45 m/s, 291° | 0 W/m² | - |
| 1778041953 | 21.67° C | 76% | 1017.2 hPa | 0 mm | 0 m/s | 0 W/m² | - |
| 1778041651 | 21.67° C | 76% | 1017.2 hPa | 0 mm | 0.45 m/s, 298° | 0 W/m² | - |
| 1778041353 | 21.67° C | 75% | 1017.2 hPa | 0 mm | 0 m/s | 0 W/m² | - |
| 1778041048 | 21.67° C | 76% | 1017.5 hPa | 0 mm | 1.79 m/s, 267° | 0 W/m² | - |
| 1778040744 | 21.67° C | 75% | 1017.6 hPa | 0 mm | 0.45 m/s, 262° | 0 W/m² | - |
| 1778040442 | 21.67° C | 75% | 1017.6 hPa | 0 mm | 0.89 m/s, 321° | 0 W/m² | - |
| 1778040139 | 21.67° C | 75% | 1017.4 hPa | 0 mm | 0.45 m/s, 328° | 0 W/m² | - |
| 1778039835 | 21.67° C | 75% | 1017.6 hPa | 0 mm | 0.89 m/s, 319° | 0 W/m² | - |
| 1778039533 | 21.67° C | 75% | 1017.5 hPa | 0 mm | 0.45 m/s, 212° | 0 W/m² | - |
| 1778039229 | 21.67° C | 75% | 1017.3 hPa | 0 mm | 0.45 m/s, 315° | 0 W/m² | - |
| 1778038927 | 21.67° C | 75% | 1017.6 hPa | 0 mm | 0.45 m/s, 279° | 0 W/m² | - |
| 1778038624 | 22.22° C | 74% | 1017.6 hPa | 0 mm | 0 m/s | 0 W/m² | - |
| 1778038320 | 22.22° C | 74% | 1017.6 hPa | 0 mm | 1.34 m/s, 291° | 0 W/m² | - |
| 1778038017 | 22.22° C | 74% | 1017.7 hPa | 0 mm | 0.45 m/s, 271° | 0 W/m² | - |
| 1778037715 | 22.22° C | 74% | 1017.5 hPa | 0 mm | 0.45 m/s, 333° | 0 W/m² | - |
| 1778037411 | 21.67° C | 74% | 1017.5 hPa | 0 mm | 0.89 m/s, 289° | 0 W/m² | - |
| 1778037108 | 21.67° C | 74% | 1017.3 hPa | 0 mm | 0 m/s | 0 W/m² | - |
| 1778036807 | 21.67° C | 74% | 1017.1 hPa | 0 mm | 0.45 m/s, 272° | 0 W/m² | - |
| 1778036504 | 21.67° C | 73% | 1017.3 hPa | 0 mm | 0 m/s | 0 W/m² | - |
| 1778036200 | 21.67° C | 73% | 1017.1 hPa | 0 mm | 0 m/s | 0 W/m² | - |
* Rain latest hour (hover to see other rain measurements)
** Current wind speed in m/s (hover to see current wind gust speed)